This demonstration page uses our WeatherBlox Daily Observations layout. Learn more.

Left ArrowRight Arrow

39.08367, -84.50855

Hourly Observations for May 29, 2019

Temp ( °F °C ) Dew Point ( °F °C ) Humidity (%) Winds ( mph kmh ) Pressure ( in mb ) Visibility ( mi km ) Precip ( " mm )
12:53 am 00:53 Clear 73 22.8 66 18.9 79 79 SSW 6 9 29.77 1008 10 16 N/A
1:53 am 01:53 Clear 72 22.2 65 18.3 79 79 SW 6 9 29.76 1008 10 16 N/A
2:53 am 02:53 Clear 74 23.3 66 18.9 76 76 SSW 6 9 29.76 1008 10 16 N/A
3:53 am 03:53 Mostly Clear 71 21.7 66 18.9 84 84 SSW 6 9 29.76 1008 10 16 N/A
4:53 am 04:53 Clear 72 22.2 66 18.9 82 82 SSW 8 13 29.75 1007 10 16 N/A
5:53 am 05:53 Partly Cloudy 73 22.8 67 19.4 81 81 SSW 8 13 29.75 1007 10 16 N/A
6:53 am 06:53 Mostly Cloudy 73 22.8 68 20 84 84 SSW 8 13 29.76 1008 10 16 N/A
7:53 am 07:53 Partly Cloudy 75 23.9 69 20.6 82 82 S 7 11 29.76 1008 10 16 N/A
8:53 am 08:53 Partly Cloudy 77 25 70 21.1 79 79 SSW 12 19 29.78 1008 10 16 N/A
9:01 am 09:01 Partly Cloudy with Thunderstorms 77 25 69 20.6 77 77 SW 10 17 29.77 1008 10 16 N/A
9:25 am 09:25 Windy with Storms Likely 75 23.9 70 21.1 84 84 SW 20 31 29.79 1009 6 10 N/A
9:40 am 09:40 Cloudy with Thunderstorms 73 22.8 70 21.1 90 90 SW 21 33 29.81 1010 3 5 0.09 2.29
9:53 am 09:53 Cloudy with Thunderstorms 72 22.2 69 20.6 91 91 SW 18 30 29.82 1010 5 8 0.12 3.05
10:20 am 10:20 Cloudy with Light Rain 72 22.2 69 20.6 91 91 SW 8 13 29.79 1009 6 10 0.03 0.76
10:26 am 10:26 Cloudy with Light Rain 72 22.2 69 20.6 91 91 SSW 8 13 29.78 1009 6 10 0.04 1.02
10:53 am 10:53 Mostly Cloudy with Light Rain 71 21.7 69 20.6 94 94 S 13 20 29.78 1008 10 16 0.04 1.02
11:53 am 11:53 Mostly Cloudy with Light Rain 71 21.7 64 17.8 79 79 SSW 20 31 29.74 1007 10 16 0.02 0.51
12:53 pm 12:53 Partly Cloudy 72 22.2 64 17.8 76 76 N N/A 29.75 1008 10 16 N/A
1:53 pm 13:53 Mostly Cloudy with Light Rain 71 21.7 64 17.8 79 79 W 14 22 29.78 1009 10 16 0.01 0.25
2:53 pm 14:53 Mostly Sunny 72 22.2 66 18.9 82 82 SSW 10 17 29.79 1009 10 16 N/A
3:53 pm 15:53 Sunny 73 22.8 64 17.8 74 74 SSW 10 17 29.77 1008 10 16 N/A
4:53 pm 16:53 Sunny 77 25 66 18.9 69 69 NW 8 13 29.78 1008 10 16 N/A
5:53 pm 17:53 Sunny 78 25.6 66 18.9 67 67 WNW 7 11 29.77 1008 10 16 N/A
6:53 pm 18:53 Sunny 78 25.6 66 18.9 67 67 WSW 7 11 29.79 1009 10 16 N/A
7:53 pm 19:53 Sunny 75 23.9 69 20.6 82 82 SE 3 6 29.78 1008 10 16 N/A
8:53 pm 20:53 Sunny 71 21.7 69 20.6 94 94 S 3 6 29.78 1009 10 16 N/A
9:53 pm 21:53 Clear 68 20 67 19.4 96 96 S 3 6 29.80 1009 10 16 N/A
10:53 pm 22:53 Clear 69 20.6 67 19.4 93 93 N N/A 29.83 1010 10 16 N/A
11:53 pm 23:53 Clear 69 20.6 67 19.4 93 93 N N/A 29.82 1010 10 16 N/A

Powered by AerisWeather